カタログに戻る

STARLINK-11322

運用中通信VLEO
NORAD 61542·PAYLOAD·🇺🇸 United States

打ち上げ Oct 15, 2024 から Vandenberg Space Force Base

Loading…

次のパス (今後24時間)

TLE

最新Source: CelesTrak SupGP

元期: Sep 14, 2026, 14:24 UTC

1 61542C 24184L   26257.60048611 -.00051644  00000+0 -42544-3 0  2575
2 61542  53.1575  25.2562 0000924  91.9508 297.1648 15.69733852    12

AllMySatでSTARLINK-11322をリアルタイム追跡

Download on the App Store